Mount Carmel, IL

4:39 PM CDT on July 24, 2017 (GMT -0500)
Mount Carmel Municipal

Weather History for KAJG - January, 2013

Change the Weather History Date:

Tuesday, January 29, 2013

  Actual Average (KLWV) Record (KLWV)
Temperature  
Mean Temperature 60 °F -  
Max Temperature 66 °F 38 °F 66 °F (2002)
Min Temperature 53 °F 23 °F 3 °F (2014)
Degree Days  
Heating Degree Days 6    
Growing Degree Days 10 (Base 50)    
Moisture  
Dew Point 57 °F    
Average Humidity 86    
Maximum Humidity 100    
Minimum Humidity 78    
Precipitation  
Precipitation 0.02 in - - ()
Sea Level Pressure  
Sea Level Pressure 29.74 in    
Wind  
Wind Speed 18 mph (South)    
Max Wind Speed 32 mph    
Max Gust Speed 48 mph    
Visibility 9 miles    
Events Rain , Thunderstorm    
Averages and records for this station are not official NWS values.
T = Trace of Precipitation, MM = Missing Value Source: NWS Daily Summary

Daily Weather History Graph

Daily Weather History Graph

Search for Another Location

Airport or City:

Trip Planner

Search our weather history database for the weather conditions in past years. The results will help you decide how hot, cold, wet, or windy it might be!

Date:

Astronomy

Jan. 29, 2013 Rise Set
Actual Time 6:58 AM CST 5:09 PM CST
Civil Twilight 6:30 AM CST 5:37 PM CST
Nautical Twilight 5:58 AM CST 6:09 PM CST
Astronomical Twilight 5:27 AM CST 6:41 PM CST
Moon 8:02 PM CST (1/29) 7:58 AM CST (1/29)
Length of Visible Light 11h 07m
Length of Day
10h 10m
Waning Gibbous, 93% of the Moon is Illuminated
Jan 29
Waning Gibbous
Feb 3
Last Quarter
Feb 10
New
Feb 17
First Quarter
Feb 25
Full

Hourly Weather History & Observations

Time (CST) Temp. Dew Point Humidity Pressure Visibility Wind Dir Wind Speed Gust Speed Precip Events Conditions
12:15 AM 57.2 °F 53.6 °F 88% 29.97 in 10.0 mi South 16.1 mph - N/A   Clear
12:35 AM 57.2 °F 53.6 °F 88% 29.97 in 10.0 mi South 16.1 mph - N/A   Clear
12:55 AM 59.0 °F 53.6 °F 82% 29.96 in 10.0 mi South 17.3 mph - N/A   Clear
1:15 AM 57.2 °F 53.6 °F 88% 29.95 in 10.0 mi South 16.1 mph - N/A   Clear
1:35 AM 57.2 °F 53.6 °F 88% 29.95 in 10.0 mi South 15.0 mph 21.9 mph N/A   Clear
1:55 AM 55.4 °F 53.6 °F 94% 29.95 in 10.0 mi South 15.0 mph - N/A   Clear
2:15 AM 57.2 °F 53.6 °F 88% 29.94 in 10.0 mi South 13.8 mph - 0.01 in   Mostly Cloudy
2:35 AM 57.2 °F 53.6 °F 88% 29.93 in 10.0 mi South 10.4 mph - 0.01 in   Overcast
2:55 AM 57.2 °F 53.6 °F 88% 29.93 in 10.0 mi South 10.4 mph - 0.01 in   Overcast
3:15 AM 57.2 °F 53.6 °F 88% 29.93 in 10.0 mi South 12.7 mph - N/A   Overcast
3:35 AM 57.2 °F 53.6 °F 88% 29.93 in 10.0 mi South 12.7 mph - N/A   Overcast
3:55 AM 57.2 °F 53.6 °F 88% 29.93 in 10.0 mi South 11.5 mph - N/A   Overcast
4:15 AM 57.2 °F 53.6 °F 88% 29.93 in 10.0 mi South 12.7 mph - N/A   Overcast
4:35 AM 57.2 °F 53.6 °F 88% 29.93 in 10.0 mi South 11.5 mph - N/A   Overcast
4:55 AM 57.2 °F 53.6 °F 88% 29.92 in 7.0 mi South 10.4 mph - N/A   Overcast
5:15 AM 57.2 °F 53.6 °F 88% 29.91 in 7.0 mi South 12.7 mph - N/A   Overcast
5:35 AM 57.2 °F 53.6 °F 88% 29.90 in 10.0 mi South 13.8 mph - N/A   Overcast
6:15 AM 59.0 °F 53.6 °F 82% 29.90 in 7.0 mi South 10.4 mph - N/A   Overcast
6:35 AM 57.2 °F 53.6 °F 88% 29.89 in 7.0 mi South 12.7 mph - N/A   Overcast
6:55 AM 57.2 °F 53.6 °F 88% 29.90 in 7.0 mi South 10.4 mph - N/A   Overcast
7:15 AM 59.0 °F 55.4 °F 88% 29.89 in 7.0 mi South 12.7 mph - N/A   Overcast
7:35 AM 59.0 °F 55.4 °F 88% 29.89 in 7.0 mi SSE 13.8 mph - N/A   Overcast
7:55 AM 59.0 °F 55.4 °F 88% 29.88 in 7.0 mi South 15.0 mph - N/A   Overcast
8:15 AM 59.0 °F 55.4 °F 88% 29.87 in 7.0 mi South 17.3 mph - N/A   Overcast
8:35 AM 59.0 °F 55.4 °F 88% 29.87 in 7.0 mi South 17.3 mph - N/A   Overcast
8:55 AM 60.8 °F 57.2 °F 88% 29.86 in 7.0 mi South 20.7 mph 26.5 mph N/A   Overcast
9:15 AM 60.8 °F 57.2 °F 88% 29.87 in 7.0 mi South 19.6 mph - N/A   Overcast
9:35 AM 60.8 °F 57.2 °F 88% 29.86 in 7.0 mi South 18.4 mph 24.2 mph N/A   Overcast
9:55 AM 60.8 °F 59.0 °F 94% 29.87 in 7.0 mi SSW 16.1 mph - N/A   Overcast
10:15 AM 62.6 °F 59.0 °F 88% 29.86 in 7.0 mi South 19.6 mph 23.0 mph N/A   Overcast
10:35 AM 62.6 °F 59.0 °F 88% 29.85 in 10.0 mi South 19.6 mph 26.5 mph N/A   Overcast
10:55 AM 62.6 °F 59.0 °F 88% 29.84 in 10.0 mi South 21.9 mph 31.1 mph N/A   Overcast
11:15 AM 62.6 °F 59.0 °F 88% 29.84 in 10.0 mi South 20.7 mph 27.6 mph N/A   Overcast
11:35 AM 62.6 °F 59.0 °F 88% 29.81 in 10.0 mi South 20.7 mph 26.5 mph N/A   Overcast
11:55 AM 62.6 °F 59.0 °F 88% 29.81 in 10.0 mi SSW 20.7 mph 25.3 mph N/A   Overcast
12:15 PM 62.6 °F 59.0 °F 88% 29.79 in 10.0 mi South 18.4 mph 23.0 mph N/A   Overcast
12:35 PM 64.4 °F 59.0 °F 83% 29.77 in 10.0 mi South 19.6 mph 25.3 mph 0.01 in   Overcast
12:55 PM 66.2 °F 59.0 °F 78% 29.75 in 10.0 mi South 21.9 mph 26.5 mph 0.01 in   Overcast
1:15 PM 66.2 °F 59.0 °F 78% 29.74 in 10.0 mi South 20.7 mph 27.6 mph N/A   Overcast
1:35 PM 64.4 °F 59.0 °F 83% 29.73 in 10.0 mi South 20.7 mph 29.9 mph N/A   Overcast
1:55 PM 64.4 °F 59.0 °F 83% 29.73 in 10.0 mi South 20.7 mph 26.5 mph N/A Thunderstorm Overcast
2:15 PM 64.4 °F 59.0 °F 83% 29.71 in 10.0 mi South 20.7 mph 27.6 mph N/A   Overcast
2:35 PM 66.2 °F 59.0 °F 78% 29.68 in 10.0 mi South 27.6 mph 36.8 mph N/A   Overcast
2:55 PM 66.2 °F 59.0 °F 78% 29.68 in 10.0 mi South 24.2 mph 31.1 mph N/A   Overcast
3:15 PM 66.2 °F 59.0 °F 78% 29.68 in 10.0 mi South 25.3 mph 32.2 mph N/A   Overcast
3:35 PM 64.4 °F 59.0 °F 83% 29.67 in 10.0 mi South 26.5 mph 31.1 mph N/A   Overcast
3:55 PM 64.4 °F 59.0 °F 83% 29.67 in 10.0 mi South 24.2 mph 33.4 mph N/A   Overcast
4:15 PM 64.4 °F 59.0 °F 83% 29.66 in 10.0 mi South 23.0 mph 32.2 mph N/A   Mostly Cloudy
4:35 PM 64.4 °F 59.0 °F 83% 29.64 in 10.0 mi South 25.3 mph 32.2 mph N/A   Mostly Cloudy
4:55 PM 64.4 °F 59.0 °F 83% 29.64 in 10.0 mi South 23.0 mph 33.4 mph N/A   Scattered Clouds
5:15 PM 64.4 °F 59.0 °F 83% 29.63 in 10.0 mi South 24.2 mph 34.5 mph N/A   Scattered Clouds
5:35 PM 64.4 °F 59.0 °F 83% 29.62 in 10.0 mi South 25.3 mph 33.4 mph N/A   Scattered Clouds
5:55 PM 64.4 °F 59.0 °F 83% 29.61 in 10.0 mi South 24.2 mph 33.4 mph N/A   Clear
6:15 PM 64.4 °F 59.0 °F 83% 29.59 in 10.0 mi South 26.5 mph 34.5 mph N/A   Clear
6:35 PM 64.4 °F 59.0 °F 83% 29.59 in 10.0 mi South 28.8 mph 39.1 mph N/A   Clear
6:55 PM 66.2 °F 59.0 °F 78% 29.57 in 10.0 mi South 25.3 mph 36.8 mph N/A   Clear
7:15 PM 64.4 °F 59.0 °F 83% 29.57 in 10.0 mi South 23.0 mph 33.4 mph N/A   Scattered Clouds
7:35 PM 64.4 °F 59.0 °F 83% 29.55 in 10.0 mi South 24.2 mph 31.1 mph N/A   Mostly Cloudy
7:55 PM 64.4 °F 59.0 °F 83% 29.54 in 10.0 mi SSE 21.9 mph 31.1 mph N/A   Scattered Clouds
8:15 PM 64.4 °F 59.0 °F 83% 29.51 in 10.0 mi SSE 21.9 mph 27.6 mph N/A   Scattered Clouds
8:35 PM 64.4 °F 59.0 °F 83% 29.49 in 10.0 mi South 24.2 mph 32.2 mph N/A   Clear
8:55 PM 64.4 °F 59.0 °F 83% 29.47 in 10.0 mi SSE 23.0 mph 33.4 mph N/A   Scattered Clouds
9:15 PM 64.4 °F 59.0 °F 83% 29.45 in 10.0 mi SSE 27.6 mph 36.8 mph N/A   Mostly Cloudy
9:35 PM 64.4 °F 59.0 °F 83% 29.43 in 10.0 mi South 26.5 mph 33.4 mph N/A Rain Light Rain
9:55 PM 64.4 °F 60.8 °F 88% 29.42 in 10.0 mi SSE 27.6 mph 34.5 mph N/A   Mostly Cloudy
10:15 PM 64.4 °F 60.8 °F 88% 29.41 in 10.0 mi South 28.8 mph 40.3 mph N/A Rain Light Rain
10:35 PM 66.2 °F 60.8 °F 83% 29.39 in 10.0 mi South 23.0 mph 38.0 mph N/A   Scattered Clouds
10:55 PM 66.2 °F 60.8 °F 83% 29.39 in 10.0 mi South 32.2 mph 39.1 mph N/A Thunderstorm Scattered Clouds
11:15 PM 55.4 °F 51.8 °F 88% 29.48 in 2.0 mi NW 28.8 mph 48.3 mph N/A Rain Heavy Rain
11:35 PM 53.6 °F 53.6 °F 100% 29.50 in 5.0 mi NW 23.0 mph 28.8 mph N/A Rain , Thunderstorm Rain
11:55 PM 53.6 °F 53.6 °F 100% 29.51 in 5.0 mi NW 18.4 mph 25.3 mph N/A Rain , Thunderstorm Rain